STARLINK-36747

Last updated on Sat Mar 14 2026 00:02:06 GMT+0000 (Coordinated Universal Time)

1 67730U 26026K 26072.58334491 .00091484 00000+0 28078-2 0 9995 2 67730 97.2846 127.1264 0001418 82.5228 226.5450 15.33378442 5947
UTC large
Height (km)
Speed (km/s)
/
Latitude / Longitude
Inclination (degrees)
Orbital Period (minutes)
Azimuth
Elevation
Range (km)
Doppler Factor

Next 0 passes for location: London (51.5072 / 0.1276)

Sorry there are no passes over London.